Time,TemperatureF,DewpointF,PressureIn,WindDirection,WindDirectionDegrees,WindSpeedMPH,WindSpeedGustMPH,Humidity,HourlyPrecipIn,Conditions,Clouds,dailyrainin,SoftwareType,DateUTC
2013-09-28 00:01:00,55.4,51.0,30.28,WNW,292,1.4,1.4,87,0.00,,,0.00,Rainwise IP-100,2013-09-28 04:01:00,
2013-09-28 00:06:00,55.1,52.0,30.29,WNW,292,0.0,2.0,88,0.00,,,0.00,Rainwise IP-100,2013-09-28 04:06:00,
2013-09-28 00:11:00,54.9,52.0,30.30,WNW,292,0.0,1.0,89,0.00,,,0.00,Rainwise IP-100,2013-09-28 04:11:00,
2013-09-28 00:16:00,54.7,52.0,30.29,WNW,292,0.0,0.0,90,0.00,,,0.00,Rainwise IP-100,2013-09-28 04:16:00,
2013-09-28 00:21:00,54.6,52.0,30.29,WNW,292,0.0,1.0,90,0.00,,,0.00,Rainwise IP-100,2013-09-28 04:21:00,
2013-09-28 00:26:00,54.4,52.0,30.26,WNW,292,0.0,2.0,90,0.00,,,0.00,Rainwise IP-100,2013-09-28 04:26:00,
2013-09-28 00:31:00,54.2,51.0,30.29,WNW,292,0.0,1.0,90,0.00,,,0.00,Rainwise IP-100,2013-09-28 04:31:00,
2013-09-28 00:36:00,54.1,51.0,30.29,WNW,292,0.0,1.0,91,0.00,,,0.00,Rainwise IP-100,2013-09-28 04:36:00,
2013-09-28 00:41:00,54.0,51.0,30.28,NW,315,0.0,2.0,91,0.00,,,0.00,Rainwise IP-100,2013-09-28 04:41:00,
2013-09-28 00:46:00,54.0,52.0,30.30,NW,315,0.0,1.0,92,0.00,,,0.00,Rainwise IP-100,2013-09-28 04:46:00,
2013-09-28 00:51:00,53.9,52.0,30.28,WNW,292,0.0,1.0,92,0.00,,,0.00,Rainwise IP-100,2013-09-28 04:51:00,
2013-09-28 00:56:00,53.9,52.0,30.31,WNW,292,0.0,2.0,92,0.00,,,0.00,Rainwise IP-100,2013-09-28 04:56:00,
2013-09-28 01:01:00,53.8,51.0,30.32,WNW,292,1.2,1.2,92,0.00,,,0.00,Rainwise IP-100,2013-09-28 05:01:00,
2013-09-28 01:06:00,53.7,51.0,30.28,WNW,292,2.1,2.1,92,0.00,,,0.00,Rainwise IP-100,2013-09-28 05:06:00,
2013-09-28 01:11:00,53.7,51.0,30.29,WNW,292,0.0,2.0,92,0.00,,,0.00,Rainwise IP-100,2013-09-28 05:11:00,
2013-09-28 01:17:00,53.5,51.0,30.31,WNW,292,0.0,1.0,92,0.00,,,0.00,Rainwise IP-100,2013-09-28 05:17:00,
2013-09-28 01:22:00,53.0,50.0,30.28,WNW,292,0.0,1.0,92,0.00,,,0.00,Rainwise IP-100,2013-09-28 05:22:00,
2013-09-28 01:27:00,52.7,50.0,30.28,WSW,247,0.0,0.0,92,0.00,,,0.00,Rainwise IP-100,2013-09-28 05:27:00,
2013-09-28 01:32:00,52.5,50.0,30.32,WSW,247,0.0,0.0,93,0.00,,,0.00,Rainwise IP-100,2013-09-28 05:32:00,
2013-09-28 01:37:00,52.5,50.0,30.30,WSW,247,0.0,0.0,93,0.00,,,0.00,Rainwise IP-100,2013-09-28 05:37:00,
2013-09-28 01:42:00,52.6,51.0,30.28,WSW,247,0.0,0.0,94,0.00,,,0.00,Rainwise IP-100,2013-09-28 05:42:00,
2013-09-28 01:47:00,52.5,51.0,30.31,SW,225,1.9,2.0,94,0.00,,,0.00,Rainwise IP-100,2013-09-28 05:47:00,
2013-09-28 01:52:00,52.3,50.0,30.29,SW,225,0.0,2.0,94,0.00,,,0.00,Rainwise IP-100,2013-09-28 05:52:00,
2013-09-28 01:57:00,52.0,50.0,30.27,SW,225,1.6,2.0,94,0.00,,,0.00,Rainwise IP-100,2013-09-28 05:57:00,
2013-09-28 02:02:00,51.7,50.0,30.32,SW,225,0.0,1.0,94,0.00,,,0.00,Rainwise IP-100,2013-09-28 06:02:00,
2013-09-28 02:07:00,51.5,50.0,30.31,SW,225,0.0,1.0,94,0.00,,,0.00,Rainwise IP-100,2013-09-28 06:07:00,
2013-09-28 02:12:00,51.3,50.0,30.30,SW,225,0.0,2.0,94,0.00,,,0.00,Rainwise IP-100,2013-09-28 06:12:00,
2013-09-28 02:17:00,51.0,50.0,30.32,SW,225,0.0,1.0,94,0.00,,,0.00,Rainwise IP-100,2013-09-28 06:17:00,
2013-09-28 02:22:00,51.0,50.0,30.29,SW,225,1.2,1.2,94,0.00,,,0.00,Rainwise IP-100,2013-09-28 06:22:00,
2013-09-28 02:27:00,50.9,50.0,30.29,SW,225,0.0,1.0,95,0.00,,,0.00,Rainwise IP-100,2013-09-28 06:27:00,
2013-09-28 02:32:00,50.8,49.0,30.29,SW,225,1.4,1.4,95,0.00,,,0.00,Rainwise IP-100,2013-09-28 06:32:00,
2013-09-28 02:37:00,50.8,49.0,30.29,SW,225,0.0,1.0,95,0.00,,,0.00,Rainwise IP-100,2013-09-28 06:37:00,
2013-09-28 02:42:00,50.9,50.0,30.31,SW,225,0.0,1.0,96,0.00,,,0.00,Rainwise IP-100,2013-09-28 06:42:00,
2013-09-28 02:46:00,51.0,50.0,30.27,SW,225,0.0,1.0,96,0.00,,,0.00,Rainwise IP-100,2013-09-28 06:46:00,
2013-09-28 02:51:00,51.0,50.0,30.29,SW,225,0.0,0.0,96,0.00,,,0.00,Rainwise IP-100,2013-09-28 06:51:00,
2013-09-28 02:56:00,50.9,50.0,30.28,SW,225,0.0,1.0,96,0.00,,,0.00,Rainwise IP-100,2013-09-28 06:56:00,
2013-09-28 03:01:00,50.9,50.0,30.29,SW,225,0.0,1.0,96,0.00,,,0.00,Rainwise IP-100,2013-09-28 07:01:00,
2013-09-28 03:06:00,50.8,50.0,30.28,SW,225,0.0,1.0,96,0.00,,,0.00,Rainwise IP-100,2013-09-28 07:06:00,
2013-09-28 03:11:00,50.5,50.0,30.30,SW,225,0.0,0.0,96,0.00,,,0.00,Rainwise IP-100,2013-09-28 07:11:00,
2013-09-28 03:16:00,50.6,50.0,30.30,SW,225,0.0,0.0,97,0.00,,,0.00,Rainwise IP-100,2013-09-28 07:16:00,
2013-09-28 03:21:00,50.7,50.0,30.33,SW,225,0.0,0.0,97,0.00,,,0.00,Rainwise IP-100,2013-09-28 07:21:00,
2013-09-28 03:26:00,50.6,50.0,30.29,SW,225,0.0,0.0,97,0.00,,,0.00,Rainwise IP-100,2013-09-28 07:26:00,
2013-09-28 03:31:00,50.3,49.0,30.30,SW,225,0.0,0.0,97,0.00,,,0.00,Rainwise IP-100,2013-09-28 07:31:00,
2013-09-28 03:36:00,50.2,49.0,30.29,SW,225,0.0,0.0,97,0.00,,,0.00,Rainwise IP-100,2013-09-28 07:36:00,
2013-09-28 03:41:00,50.0,49.0,30.30,SW,225,0.0,1.0,97,0.00,,,0.00,Rainwise IP-100,2013-09-28 07:41:00,
2013-09-28 03:46:00,50.2,49.0,30.32,SW,225,0.0,0.0,97,0.00,,,0.00,Rainwise IP-100,2013-09-28 07:46:00,
2013-09-28 03:51:00,50.5,50.0,30.31,SW,225,0.0,0.0,98,0.00,,,0.00,Rainwise IP-100,2013-09-28 07:51:00,
2013-09-28 03:56:00,50.7,50.0,30.30,SW,225,0.0,0.0,98,0.00,,,0.00,Rainwise IP-100,2013-09-28 07:56:00,
2013-09-28 04:01:00,50.5,50.0,30.31,SW,225,0.0,1.0,98,0.00,,,0.00,Rainwise IP-100,2013-09-28 08:01:00,
2013-09-28 04:06:00,50.3,49.0,30.31,SW,225,1.2,1.2,98,0.00,,,0.00,Rainwise IP-100,2013-09-28 08:06:00,
2013-09-28 04:11:00,50.1,49.0,30.32,SW,225,0.0,1.0,98,0.00,,,0.00,Rainwise IP-100,2013-09-28 08:11:00,
2013-09-28 04:16:00,50.0,49.0,30.34,SW,225,0.0,1.0,98,0.00,,,0.00,Rainwise IP-100,2013-09-28 08:16:00,
2013-09-28 04:21:00,49.8,49.0,30.29,SW,225,0.0,1.0,98,0.00,,,0.00,Rainwise IP-100,2013-09-28 08:21:00,
2013-09-28 04:26:00,49.6,49.0,30.34,SW,225,0.0,0.0,98,0.00,,,0.00,Rainwise IP-100,2013-09-28 08:26:00,
2013-09-28 04:31:00,49.6,49.0,30.29,SW,225,0.0,0.0,98,0.00,,,0.00,Rainwise IP-100,2013-09-28 08:31:00,
2013-09-28 04:37:00,49.8,50.0,30.30,SW,225,0.0,0.0,99,0.00,,,0.00,Rainwise IP-100,2013-09-28 08:37:00,
2013-09-28 04:41:00,49.8,50.0,30.30,SW,225,0.0,0.0,99,0.00,,,0.00,Rainwise IP-100,2013-09-28 08:41:00,
2013-09-28 04:46:00,49.8,50.0,30.30,SW,225,0.0,0.0,99,0.00,,,0.00,Rainwise IP-100,2013-09-28 08:46:00,
2013-09-28 04:51:00,49.7,50.0,30.34,SW,225,0.0,1.0,99,0.00,,,0.00,Rainwise IP-100,2013-09-28 08:51:00,
2013-09-28 04:56:00,49.5,50.0,30.30,SW,225,0.0,1.0,99,0.00,,,0.00,Rainwise IP-100,2013-09-28 08:56:00,
2013-09-28 05:02:00,49.5,50.0,30.32,SW,225,0.0,1.0,99,0.00,,,0.00,Rainwise IP-100,2013-09-28 09:02:00,
2013-09-28 05:07:00,49.4,49.0,30.31,SW,225,0.0,1.0,99,0.00,,,0.00,Rainwise IP-100,2013-09-28 09:07:00,
2013-09-28 05:12:00,49.5,50.0,30.32,SW,225,0.0,0.0,99,0.00,,,0.00,Rainwise IP-100,2013-09-28 09:12:00,
2013-09-28 05:17:00,49.6,50.0,30.32,West,270,1.2,1.2,99,0.00,,,0.00,Rainwise IP-100,2013-09-28 09:17:00,
2013-09-28 05:22:00,49.5,50.0,30.34,West,270,0.0,1.0,99,0.00,,,0.00,Rainwise IP-100,2013-09-28 09:22:00,
2013-09-28 05:27:00,49.7,50.0,30.32,NW,315,0.0,1.0,99,0.00,,,0.00,Rainwise IP-100,2013-09-28 09:27:00,
2013-09-28 05:32:00,49.8,50.0,30.33,NW,315,0.0,1.0,100,0.00,,,0.00,Rainwise IP-100,2013-09-28 09:32:00,
2013-09-28 05:37:00,49.6,50.0,30.32,NW,315,0.0,0.0,100,0.00,,,0.00,Rainwise IP-100,2013-09-28 09:37:00,
2013-09-28 05:42:00,49.3,49.0,30.33,NW,315,0.0,0.0,100,0.00,,,0.00,Rainwise IP-100,2013-09-28 09:42:00,
2013-09-28 05:47:00,49.1,49.0,30.33,North,0,2.1,2.1,100,0.00,,,0.00,Rainwise IP-100,2013-09-28 09:47:00,
2013-09-28 05:52:00,49.1,49.0,30.30,North,0,0.0,2.0,100,0.00,,,0.00,Rainwise IP-100,2013-09-28 09:52:00,
2013-09-28 05:57:00,49.1,49.0,30.32,North,0,0.0,0.0,100,0.00,,,0.00,Rainwise IP-100,2013-09-28 09:57:00,
2013-09-28 06:02:00,49.0,49.0,30.32,North,0,0.0,0.0,100,0.00,,,0.00,Rainwise IP-100,2013-09-28 10:02:00,
2013-09-28 06:07:00,48.8,49.0,30.34,North,0,0.0,0.0,100,0.00,,,0.00,Rainwise IP-100,2013-09-28 10:07:00,
2013-09-28 06:12:00,48.6,49.0,30.33,North,0,1.2,2.0,100,0.00,,,0.00,Rainwise IP-100,2013-09-28 10:12:00,
2013-09-28 06:17:00,48.5,49.0,30.34,North,0,0.0,2.0,100,0.00,,,0.00,Rainwise IP-100,2013-09-28 10:17:00,
2013-09-28 06:22:00,48.5,49.0,30.36,North,0,0.0,2.0,100,0.00,,,0.00,Rainwise IP-100,2013-09-28 10:22:00,
2013-09-28 06:27:00,48.6,49.0,30.36,North,0,0.0,0.0,100,0.00,,,0.00,Rainwise IP-100,2013-09-28 10:27:00,
2013-09-28 06:32:00,48.5,49.0,30.35,North,0,0.0,2.0,100,0.00,,,0.00,Rainwise IP-100,2013-09-28 10:32:00,
2013-09-28 06:37:00,48.3,48.0,30.36,North,0,0.0,1.0,100,0.00,,,0.00,Rainwise IP-100,2013-09-28 10:37:00,
2013-09-28 06:42:00,48.3,48.0,30.33,North,0,0.0,1.0,100,0.00,,,0.00,Rainwise IP-100,2013-09-28 10:42:00,
2013-09-28 06:47:00,48.3,48.0,30.36,North,0,0.0,0.0,100,0.00,,,0.00,Rainwise IP-100,2013-09-28 10:47:00,
2013-09-28 06:52:00,48.4,48.0,30.38,North,0,0.0,0.0,100,0.00,,,0.00,Rainwise IP-100,2013-09-28 10:52:00,
2013-09-28 06:57:00,48.6,49.0,30.36,WNW,292,1.2,0.0,100,0.00,,,0.00,Rainwise IP-100,2013-09-28 10:57:00,
2013-09-28 07:02:00,48.8,49.0,30.37,WNW,292,0.0,2.0,100,0.00,,,0.00,Rainwise IP-100,2013-09-28 11:02:00,
2013-09-28 07:07:00,49.0,49.0,30.37,WNW,292,1.4,1.4,100,0.00,,,0.00,Rainwise IP-100,2013-09-28 11:07:00,
2013-09-28 07:12:00,49.2,49.0,30.37,WNW,292,1.4,1.4,100,0.00,,,0.00,Rainwise IP-100,2013-09-28 11:12:00,
2013-09-28 07:17:00,49.5,50.0,30.36,WNW,292,0.0,2.0,100,0.00,,,0.00,Rainwise IP-100,2013-09-28 11:17:00,
2013-09-28 07:22:00,50.0,50.0,30.37,WNW,292,0.0,1.0,100,0.00,,,0.00,Rainwise IP-100,2013-09-28 11:22:00,
2013-09-28 07:27:00,50.5,50.0,30.35,WNW,292,0.0,0.0,100,0.00,,,0.00,Rainwise IP-100,2013-09-28 11:27:00,
2013-09-28 07:32:00,50.9,51.0,30.37,NNW,337,1.9,1.9,100,0.00,,,0.00,Rainwise IP-100,2013-09-28 11:32:00,
2013-09-28 07:37:00,51.4,51.0,30.36,NNW,337,3.5,4.0,100,0.00,,,0.00,Rainwise IP-100,2013-09-28 11:37:00,
2013-09-28 07:42:00,51.6,52.0,30.35,NNW,337,2.8,4.0,100,0.00,,,0.00,Rainwise IP-100,2013-09-28 11:42:00,
2013-09-28 07:47:00,51.6,52.0,30.35,NNW,337,4.7,4.7,100,0.00,,,0.00,Rainwise IP-100,2013-09-28 11:47:00,
2013-09-28 07:51:00,51.8,52.0,30.37,NNW,337,3.5,4.0,99,0.00,,,0.00,Rainwise IP-100,2013-09-28 11:51:00,
2013-09-28 07:56:00,52.1,52.0,30.38,NNW,337,3.0,4.0,99,0.00,,,0.00,Rainwise IP-100,2013-09-28 11:56:00,
2013-09-28 08:01:00,52.4,52.0,30.36,NNW,337,2.1,4.0,99,0.00,,,0.00,Rainwise IP-100,2013-09-28 12:01:00,
2013-09-28 08:06:00,52.8,53.0,30.35,NNE,22,2.1,3.0,99,0.00,,,0.00,Rainwise IP-100,2013-09-28 12:06:00,
2013-09-28 08:11:00,53.6,53.0,30.38,NNE,22,1.2,2.0,98,0.00,,,0.00,Rainwise IP-100,2013-09-28 12:11:00,
2013-09-28 08:16:00,54.3,53.0,30.36,NNE,22,1.4,2.0,97,0.00,,,0.00,Rainwise IP-100,2013-09-28 12:16:00,
2013-09-28 08:21:00,55.2,54.0,30.39,ESE,112,0.0,1.0,96,0.00,,,0.00,Rainwise IP-100,2013-09-28 12:21:00,
2013-09-28 08:26:00,56.1,54.0,30.39,ESE,112,0.0,1.0,95,0.00,,,0.00,Rainwise IP-100,2013-09-28 12:26:00,
2013-09-28 08:31:00,55.8,54.0,30.39,NE,45,3.7,3.7,93,0.00,,,0.00,Rainwise IP-100,2013-09-28 12:31:00,
2013-09-28 08:36:00,55.6,53.0,30.38,NNW,337,2.6,3.0,91,0.00,,,0.00,Rainwise IP-100,2013-09-28 12:36:00,
2013-09-28 08:41:00,55.7,53.0,30.36,NNE,22,1.9,3.0,90,0.00,,,0.00,Rainwise IP-100,2013-09-28 12:41:00,
2013-09-28 08:46:00,55.7,53.0,30.39,NNW,337,3.7,3.7,89,0.00,,,0.00,Rainwise IP-100,2013-09-28 12:46:00,
2013-09-28 08:51:00,55.6,53.0,30.39,NNW,337,2.3,4.0,88,0.00,,,0.00,Rainwise IP-100,2013-09-28 12:51:00,
2013-09-28 08:56:00,55.3,52.0,30.36,NNW,337,3.5,5.0,88,0.00,,,0.00,Rainwise IP-100,2013-09-28 12:56:00,
2013-09-28 09:01:00,54.9,52.0,30.36,NNW,337,3.5,4.0,88,0.00,,,0.00,Rainwise IP-100,2013-09-28 13:01:00,
2013-09-28 09:06:00,54.8,51.0,30.36,NNW,337,4.9,5.0,88,0.00,,,0.00,Rainwise IP-100,2013-09-28 13:06:00,
2013-09-28 09:11:00,54.6,51.0,30.38,NNW,337,4.0,5.0,88,0.00,,,0.00,Rainwise IP-100,2013-09-28 13:11:00,
2013-09-28 09:16:00,54.3,50.0,30.36,NNW,337,4.2,5.0,89,0.00,,,0.00,Rainwise IP-100,2013-09-28 13:16:00,
2013-09-28 09:21:00,54.6,51.0,30.36,NNW,337,4.2,4.2,89,0.00,,,0.00,Rainwise IP-100,2013-09-28 13:21:00,
2013-09-28 09:26:00,55.1,52.0,30.36,NNW,337,3.0,4.0,89,0.00,,,0.00,Rainwise IP-100,2013-09-28 13:26:00,
2013-09-28 09:31:00,55.3,52.0,30.37,NNW,337,2.1,4.0,89,0.00,,,0.00,Rainwise IP-100,2013-09-28 13:31:00,
2013-09-28 09:36:00,55.7,53.0,30.37,NNW,337,3.3,4.0,88,0.00,,,0.00,Rainwise IP-100,2013-09-28 13:36:00,
2013-09-28 09:41:00,56.1,53.0,30.38,NNW,337,2.8,4.0,88,0.00,,,0.00,Rainwise IP-100,2013-09-28 13:41:00,
2013-09-28 09:46:00,56.6,53.0,30.39,NNW,337,4.4,4.4,87,0.00,,,0.00,Rainwise IP-100,2013-09-28 13:46:00,
2013-09-28 09:51:00,57.1,53.0,30.37,NNW,337,3.5,4.0,85,0.00,,,0.00,Rainwise IP-100,2013-09-28 13:51:00,
2013-09-28 09:56:00,57.5,53.0,30.37,NNW,337,2.3,4.0,84,0.00,,,0.00,Rainwise IP-100,2013-09-28 13:56:00,
2013-09-28 10:01:00,58.5,54.0,30.38,NNE,22,1.9,4.0,83,0.00,,,0.00,Rainwise IP-100,2013-09-28 14:01:00,
2013-09-28 10:06:00,59.6,53.0,30.40,NE,45,4.2,4.2,80,0.00,,,0.00,Rainwise IP-100,2013-09-28 14:06:00,
2013-09-28 10:11:00,59.3,52.0,30.39,ENE,67,1.9,4.0,78,0.00,,,0.00,Rainwise IP-100,2013-09-28 14:11:00,
2013-09-28 10:16:00,59.4,53.0,30.38,NE,45,1.6,3.0,78,0.00,,,0.00,Rainwise IP-100,2013-09-28 14:16:00,
2013-09-28 10:21:00,60.2,53.0,30.38,ESE,112,4.4,4.4,77,0.00,,,0.00,Rainwise IP-100,2013-09-28 14:21:00,
2013-09-28 10:26:00,60.2,52.0,30.39,East,90,1.9,5.0,75,0.00,,,0.00,Rainwise IP-100,2013-09-28 14:26:00,
2013-09-28 10:31:00,59.9,52.0,30.36,ESE,112,3.0,4.0,75,0.00,,,0.00,Rainwise IP-100,2013-09-28 14:31:00,
2013-09-28 10:36:00,60.2,51.0,30.38,ENE,67,1.6,4.0,74,0.00,,,0.00,Rainwise IP-100,2013-09-28 14:36:00,
2013-09-28 10:41:00,61.2,52.0,30.35,East,90,2.3,3.0,73,0.00,,,0.00,Rainwise IP-100,2013-09-28 14:41:00,
2013-09-28 10:46:00,61.5,52.0,30.38,SSE,157,3.3,4.0,71,0.00,,,0.00,Rainwise IP-100,2013-09-28 14:46:00,
2013-09-28 10:51:00,61.5,52.0,30.36,ESE,112,1.2,5.0,70,0.00,,,0.00,Rainwise IP-100,2013-09-28 14:51:00,
2013-09-28 10:56:00,61.9,52.0,30.39,ESE,112,4.0,4.0,70,0.00,,,0.00,Rainwise IP-100,2013-09-28 14:56:00,
2013-09-28 11:01:00,62.0,52.0,30.39,East,90,1.2,4.0,69,0.00,,,0.00,Rainwise IP-100,2013-09-28 15:01:00,
2013-09-28 11:06:00,62.4,52.0,30.39,East,90,1.6,3.0,68,0.00,,,0.00,Rainwise IP-100,2013-09-28 15:06:00,
2013-09-28 11:11:00,63.2,52.0,30.39,NNE,22,0.0,4.0,67,0.00,,,0.00,Rainwise IP-100,2013-09-28 15:11:00,
2013-09-28 11:16:00,63.6,51.0,30.39,SE,135,2.8,4.0,65,0.00,,,0.00,Rainwise IP-100,2013-09-28 15:16:00,
2013-09-28 11:21:00,62.7,51.0,30.39,ESE,112,4.7,10.0,66,0.00,,,0.00,Rainwise IP-100,2013-09-28 15:21:00,
2013-09-28 11:26:00,61.2,51.0,30.39,SSE,157,3.3,8.0,70,0.00,,,0.00,Rainwise IP-100,2013-09-28 15:26:00,
2013-09-28 11:31:00,61.0,52.0,30.38,SE,135,3.5,4.0,72,0.00,,,0.00,Rainwise IP-100,2013-09-28 15:31:00,
2013-09-28 11:36:00,61.8,52.0,30.40,ESE,112,4.2,6.0,71,0.00,,,0.00,Rainwise IP-100,2013-09-28 15:36:00,
2013-09-28 11:41:00,62.0,52.0,30.37,ESE,112,4.0,7.0,70,0.00,,,0.00,Rainwise IP-100,2013-09-28 15:41:00,
2013-09-28 11:46:00,62.0,52.0,30.39,ESE,112,4.7,7.0,70,0.00,,,0.00,Rainwise IP-100,2013-09-28 15:46:00,
2013-09-28 11:51:00,62.0,52.0,30.38,SE,135,5.1,6.0,70,0.00,,,0.00,Rainwise IP-100,2013-09-28 15:51:00,
2013-09-28 11:56:00,62.2,52.0,30.38,SSE,157,3.7,8.0,70,0.00,,,0.00,Rainwise IP-100,2013-09-28 15:56:00,
2013-09-28 12:01:00,62.6,53.0,30.35,SSE,157,2.8,6.0,70,0.00,,,0.00,Rainwise IP-100,2013-09-28 16:01:00,
2013-09-28 12:06:00,63.4,53.0,30.39,SE,135,4.7,5.0,68,0.00,,,0.00,Rainwise IP-100,2013-09-28 16:06:00,
2013-09-28 12:11:00,64.2,53.0,30.36,ESE,112,0.0,5.0,66,0.00,,,0.00,Rainwise IP-100,2013-09-28 16:11:00,
2013-09-28 12:16:00,64.8,53.0,30.34,ESE,112,1.6,4.0,65,0.00,,,0.00,Rainwise IP-100,2013-09-28 16:16:00,
2013-09-28 12:21:00,65.2,53.0,30.36,SE,135,4.0,5.0,64,0.00,,,0.00,Rainwise IP-100,2013-09-28 16:21:00,
2013-09-28 12:26:00,65.1,53.0,30.37,SSE,157,3.3,6.0,64,0.00,,,0.00,Rainwise IP-100,2013-09-28 16:26:00,
2013-09-28 12:31:00,64.5,53.0,30.37,ESE,112,4.4,6.0,65,0.00,,,0.00,Rainwise IP-100,2013-09-28 16:31:00,
2013-09-28 12:36:00,63.2,51.0,30.38,SSE,157,5.1,9.0,66,0.00,,,0.00,Rainwise IP-100,2013-09-28 16:36:00,
2013-09-28 12:41:00,61.8,51.0,30.36,ESE,112,4.7,9.0,69,0.00,,,0.00,Rainwise IP-100,2013-09-28 16:41:00,
2013-09-28 12:46:00,61.0,51.0,30.36,ESE,112,7.5,10.0,71,0.00,,,0.00,Rainwise IP-100,2013-09-28 16:46:00,
2013-09-28 12:51:00,61.1,52.0,30.38,SSE,157,3.5,10.0,73,0.00,,,0.00,Rainwise IP-100,2013-09-28 16:51:00,
2013-09-28 12:56:00,61.5,53.0,30.37,SE,135,7.7,7.7,73,0.00,,,0.00,Rainwise IP-100,2013-09-28 16:56:00,
2013-09-28 13:01:00,61.7,53.0,30.36,SE,135,6.5,7.0,73,0.00,,,0.00,Rainwise IP-100,2013-09-28 17:01:00,
2013-09-28 13:06:00,61.8,53.0,30.33,ESE,112,6.5,7.0,73,0.00,,,0.00,Rainwise IP-100,2013-09-28 17:06:00,
2013-09-28 13:11:00,61.9,53.0,30.35,ESE,112,5.4,8.0,73,0.00,,,0.00,Rainwise IP-100,2013-09-28 17:11:00,
2013-09-28 13:16:00,62.0,53.0,30.35,ESE,112,4.0,9.0,72,0.00,,,0.00,Rainwise IP-100,2013-09-28 17:16:00,
2013-09-28 13:21:00,61.6,52.0,30.33,SSE,157,7.2,11.0,71,0.00,,,0.00,Rainwise IP-100,2013-09-28 17:21:00,
2013-09-28 13:26:00,61.1,51.0,30.38,South,180,6.1,11.0,70,0.00,,,0.00,Rainwise IP-100,2013-09-28 17:26:00,
2013-09-28 13:31:00,61.5,51.0,30.34,ESE,112,8.2,8.2,69,0.00,,,0.00,Rainwise IP-100,2013-09-28 17:31:00,
2013-09-28 13:36:00,61.8,51.0,30.36,SSE,157,5.4,9.0,69,0.00,,,0.00,Rainwise IP-100,2013-09-28 17:36:00,
2013-09-28 13:41:00,61.9,51.0,30.37,ESE,112,4.2,8.0,68,0.00,,,0.00,Rainwise IP-100,2013-09-28 17:41:00,
2013-09-28 13:46:00,62.0,51.0,30.36,ESE,112,6.1,9.0,68,0.00,,,0.00,Rainwise IP-100,2013-09-28 17:46:00,
2013-09-28 13:51:00,62.4,51.0,30.36,ESE,112,4.4,7.0,67,0.00,,,0.00,Rainwise IP-100,2013-09-28 17:51:00,
2013-09-28 13:56:00,63.1,51.0,30.33,SSE,157,4.7,7.0,66,0.00,,,0.00,Rainwise IP-100,2013-09-28 17:56:00,
2013-09-28 14:01:00,63.5,51.0,30.36,ESE,112,7.5,8.0,65,0.00,,,0.00,Rainwise IP-100,2013-09-28 18:01:00,
2013-09-28 14:06:00,63.7,51.0,30.33,ESE,112,2.6,8.0,65,0.00,,,0.00,Rainwise IP-100,2013-09-28 18:06:00,
2013-09-28 14:11:00,64.1,51.0,30.34,SE,135,6.1,8.0,64,0.00,,,0.00,Rainwise IP-100,2013-09-28 18:11:00,
2013-09-28 14:16:00,64.5,51.0,30.36,SE,135,7.0,9.0,63,0.00,,,0.00,Rainwise IP-100,2013-09-28 18:16:00,
2013-09-28 14:21:00,65.3,51.0,30.34,SSE,157,6.5,7.0,62,0.00,,,0.00,Rainwise IP-100,2013-09-28 18:21:00,
2013-09-28 14:26:00,66.1,52.0,30.34,SE,135,5.4,7.0,61,0.00,,,0.00,Rainwise IP-100,2013-09-28 18:26:00,
2013-09-28 14:31:00,66.4,51.0,30.30,ESE,112,3.7,7.0,59,0.00,,,0.00,Rainwise IP-100,2013-09-28 18:31:00,
2013-09-28 14:36:00,66.4,52.0,30.34,ESE,112,4.7,9.0,60,0.00,,,0.00,Rainwise IP-100,2013-09-28 18:36:00,
2013-09-28 14:41:00,66.3,53.0,30.32,SE,135,8.2,9.0,61,0.00,,,0.00,Rainwise IP-100,2013-09-28 18:41:00,
2013-09-28 14:46:00,66.3,53.0,30.33,ESE,112,3.7,9.0,61,0.00,,,0.00,Rainwise IP-100,2013-09-28 18:46:00,
2013-09-28 14:51:00,66.2,53.0,30.35,SE,135,6.1,8.0,62,0.00,,,0.00,Rainwise IP-100,2013-09-28 18:51:00,
2013-09-28 14:56:00,66.4,53.0,30.35,SE,135,6.3,8.0,61,0.00,,,0.00,Rainwise IP-100,2013-09-28 18:56:00,
2013-09-28 15:01:00,66.6,53.0,30.34,SSE,157,4.9,8.0,61,0.00,,,0.00,Rainwise IP-100,2013-09-28 19:01:00,
2013-09-28 15:06:00,66.5,53.0,30.34,ESE,112,5.1,9.0,61,0.00,,,0.00,Rainwise IP-100,2013-09-28 19:06:00,
2013-09-28 15:11:00,66.8,53.0,30.33,SSE,157,3.0,7.0,61,0.00,,,0.00,Rainwise IP-100,2013-09-28 19:11:00,
2013-09-28 15:16:00,67.3,53.0,30.34,SE,135,4.9,7.0,60,0.00,,,0.00,Rainwise IP-100,2013-09-28 19:16:00,
2013-09-28 15:21:00,67.6,53.0,30.35,SSE,157,5.8,6.0,60,0.00,,,0.00,Rainwise IP-100,2013-09-28 19:21:00,
2013-09-28 15:26:00,67.5,53.0,30.32,SE,135,4.9,7.0,60,0.00,,,0.00,Rainwise IP-100,2013-09-28 19:26:00,
2013-09-28 15:31:00,67.3,53.0,30.32,SSE,157,5.4,8.0,61,0.00,,,0.00,Rainwise IP-100,2013-09-28 19:31:00,
2013-09-28 15:36:00,67.6,53.0,30.33,SSE,157,4.2,7.0,60,0.00,,,0.00,Rainwise IP-100,2013-09-28 19:36:00,
2013-09-28 15:41:00,68.0,53.0,30.34,East,90,4.7,7.0,60,0.00,,,0.00,Rainwise IP-100,2013-09-28 19:41:00,
2013-09-28 15:46:00,67.9,53.0,30.32,SE,135,5.4,8.0,59,0.00,,,0.00,Rainwise IP-100,2013-09-28 19:46:00,
2013-09-28 15:51:00,67.6,53.0,30.34,ESE,112,5.6,7.0,59,0.00,,,0.00,Rainwise IP-100,2013-09-28 19:51:00,
2013-09-28 15:56:00,67.7,52.0,30.32,ESE,112,7.0,7.0,58,0.00,,,0.00,Rainwise IP-100,2013-09-28 19:56:00,
2013-09-28 16:01:00,67.9,52.0,30.32,ESE,112,2.6,7.0,57,0.00,,,0.00,Rainwise IP-100,2013-09-28 20:01:00,
2013-09-28 16:06:00,67.9,52.0,30.33,SSW,202,4.2,5.0,57,0.00,,,0.00,Rainwise IP-100,2013-09-28 20:06:00,
2013-09-28 16:11:00,68.1,52.0,30.34,South,180,2.1,7.0,57,0.00,,,0.00,Rainwise IP-100,2013-09-28 20:11:00,
2013-09-28 16:16:00,68.3,52.0,30.32,SSW,202,2.6,6.0,57,0.00,,,0.00,Rainwise IP-100,2013-09-28 20:16:00,
2013-09-28 16:21:00,68.5,53.0,30.32,SSW,202,1.9,5.0,57,0.00,,,0.00,Rainwise IP-100,2013-09-28 20:21:00,
2013-09-28 16:26:00,68.3,52.0,30.33,South,180,5.6,6.0,57,0.00,,,0.00,Rainwise IP-100,2013-09-28 20:26:00,
2013-09-28 16:31:00,67.7,52.0,30.32,SSE,157,3.5,7.0,58,0.00,,,0.00,Rainwise IP-100,2013-09-28 20:31:00,
2013-09-28 16:36:00,67.2,53.0,30.31,SSW,202,5.6,7.0,59,0.00,,,0.00,Rainwise IP-100,2013-09-28 20:36:00,
2013-09-28 16:41:00,67.2,53.0,30.32,SSW,202,3.7,7.0,59,0.00,,,0.00,Rainwise IP-100,2013-09-28 20:41:00,
2013-09-28 16:46:00,67.1,53.0,30.31,South,180,3.0,6.0,60,0.00,,,0.00,Rainwise IP-100,2013-09-28 20:46:00,
2013-09-28 16:51:00,67.1,53.0,30.32,SSW,202,3.7,5.0,60,0.00,,,0.00,Rainwise IP-100,2013-09-28 20:51:00,
2013-09-28 16:56:00,67.0,53.0,30.35,SSW,202,5.4,5.4,60,0.00,,,0.00,Rainwise IP-100,2013-09-28 20:56:00,
2013-09-28 17:01:00,66.8,53.0,30.30,SW,225,5.4,6.0,61,0.00,,,0.00,Rainwise IP-100,2013-09-28 21:01:00,
2013-09-28 17:06:00,66.6,53.0,30.32,SSW,202,5.8,5.8,61,0.00,,,0.00,Rainwise IP-100,2013-09-28 21:06:00,
2013-09-28 17:11:00,66.1,53.0,30.31,South,180,2.8,7.0,62,0.00,,,0.00,Rainwise IP-100,2013-09-28 21:11:00,
2013-09-28 17:16:00,65.5,53.0,30.32,SW,225,3.7,6.0,63,0.00,,,0.00,Rainwise IP-100,2013-09-28 21:16:00,
2013-09-28 17:21:00,65.2,53.0,30.33,SSW,202,5.1,7.0,64,0.00,,,0.00,Rainwise IP-100,2013-09-28 21:21:00,
2013-09-28 17:26:00,64.4,53.0,30.34,SSW,202,2.8,9.0,65,0.00,,,0.00,Rainwise IP-100,2013-09-28 21:26:00,
2013-09-28 17:31:00,63.7,52.0,30.32,SSW,202,3.3,6.0,66,0.00,,,0.00,Rainwise IP-100,2013-09-28 21:31:00,
2013-09-28 17:36:00,63.3,52.0,30.32,SSE,157,2.8,6.0,67,0.00,,,0.00,Rainwise IP-100,2013-09-28 21:36:00,
2013-09-28 17:41:00,62.9,52.0,30.33,SSW,202,5.8,7.0,68,0.00,,,0.00,Rainwise IP-100,2013-09-28 21:41:00,
2013-09-28 17:46:00,62.5,52.0,30.34,SSW,202,3.3,7.0,69,0.00,,,0.00,Rainwise IP-100,2013-09-28 21:46:00,
2013-09-28 17:51:00,62.1,52.0,30.33,SSW,202,7.9,7.9,70,0.00,,,0.00,Rainwise IP-100,2013-09-28 21:51:00,
2013-09-28 17:56:00,61.7,52.0,30.34,SSW,202,2.8,7.0,71,0.00,,,0.00,Rainwise IP-100,2013-09-28 21:56:00,
2013-09-28 18:01:00,61.3,51.0,30.34,SSW,202,2.1,4.0,71,0.00,,,0.00,Rainwise IP-100,2013-09-28 22:01:00,
2013-09-28 18:06:00,60.9,52.0,30.33,SW,225,0.0,4.0,72,0.00,,,0.00,Rainwise IP-100,2013-09-28 22:06:00,
2013-09-28 18:11:00,60.6,52.0,30.36,SSW,202,1.9,2.0,73,0.00,,,0.00,Rainwise IP-100,2013-09-28 22:11:00,
2013-09-28 18:16:00,60.3,51.0,30.34,SSW,202,2.6,4.0,73,0.00,,,0.00,Rainwise IP-100,2013-09-28 22:16:00,
2013-09-28 18:21:00,60.0,51.0,30.34,SSW,202,1.9,4.0,74,0.00,,,0.00,Rainwise IP-100,2013-09-28 22:21:00,
2013-09-28 18:26:00,59.8,51.0,30.34,SSW,202,2.1,6.0,75,0.00,,,0.00,Rainwise IP-100,2013-09-28 22:26:00,
2013-09-28 18:31:00,59.6,51.0,30.34,SSW,202,2.6,4.0,75,0.00,,,0.00,Rainwise IP-100,2013-09-28 22:31:00,
2013-09-28 18:36:00,59.4,51.0,30.34,SSW,202,0.0,5.0,75,0.00,,,0.00,Rainwise IP-100,2013-09-28 22:36:00,
2013-09-28 18:41:00,59.2,51.0,30.34,SSW,202,2.3,4.0,75,0.00,,,0.00,Rainwise IP-100,2013-09-28 22:41:00,
2013-09-28 18:46:00,58.8,51.0,30.32,SSW,202,0.0,3.0,76,0.00,,,0.00,Rainwise IP-100,2013-09-28 22:46:00,
2013-09-28 18:51:00,58.4,51.0,30.35,SSW,202,1.6,1.6,77,0.00,,,0.00,Rainwise IP-100,2013-09-28 22:51:00,
2013-09-28 18:56:00,58.1,51.0,30.34,SSW,202,0.0,2.0,78,0.00,,,0.00,Rainwise IP-100,2013-09-28 22:56:00,
2013-09-28 19:01:00,57.7,51.0,30.32,SSW,202,1.2,1.2,79,0.00,,,0.00,Rainwise IP-100,2013-09-28 23:01:00,
2013-09-28 19:06:00,57.3,51.0,30.33,SSW,202,0.0,1.0,81,0.00,,,0.00,Rainwise IP-100,2013-09-28 23:06:00,
2013-09-28 19:11:00,57.1,52.0,30.34,SW,225,1.4,2.0,82,0.00,,,0.00,Rainwise IP-100,2013-09-28 23:11:00,
2013-09-28 19:16:00,57.0,52.0,30.34,SW,225,1.4,2.0,83,0.00,,,0.00,Rainwise IP-100,2013-09-28 23:16:00,
2013-09-28 19:21:00,56.8,51.0,30.34,SW,225,1.6,1.6,83,0.00,,,0.00,Rainwise IP-100,2013-09-28 23:21:00,
2013-09-28 19:26:00,56.7,51.0,30.34,SW,225,1.2,1.2,82,0.00,,,0.00,Rainwise IP-100,2013-09-28 23:26:00,
2013-09-28 19:31:00,56.8,50.0,30.33,SW,225,1.4,1.4,81,0.00,,,0.00,Rainwise IP-100,2013-09-28 23:31:00,
2013-09-28 19:36:00,56.8,50.0,30.34,SW,225,1.2,2.0,81,0.00,,,0.00,Rainwise IP-100,2013-09-28 23:36:00,
2013-09-28 19:41:00,56.4,50.0,30.35,SSW,202,0.0,2.0,81,0.00,,,0.00,Rainwise IP-100,2013-09-28 23:41:00,
2013-09-28 19:46:00,56.0,50.0,30.34,SSW,202,0.0,1.0,82,0.00,,,0.00,Rainwise IP-100,2013-09-28 23:46:00,
2013-09-28 19:51:00,55.6,50.0,30.34,SSW,202,0.0,0.0,83,0.00,,,0.00,Rainwise IP-100,2013-09-28 23:51:00,
2013-09-28 19:56:00,55.3,50.0,30.33,SSW,202,0.0,0.0,83,0.00,,,0.00,Rainwise IP-100,2013-09-28 23:56:00,
2013-09-28 20:01:00,55.4,50.0,30.34,SSW,202,0.0,1.0,83,0.00,,,0.00,Rainwise IP-100,2013-09-29 00:01:00,
2013-09-28 20:06:00,55.4,50.0,30.34,SW,225,1.9,1.9,82,0.00,,,0.00,Rainwise IP-100,2013-09-29 00:06:00,
2013-09-28 20:11:00,55.2,50.0,30.34,SW,225,0.0,2.0,82,0.00,,,0.00,Rainwise IP-100,2013-09-29 00:11:00,
2013-09-28 20:16:00,55.1,50.0,30.33,SW,225,0.0,1.0,83,0.00,,,0.00,Rainwise IP-100,2013-09-29 00:16:00,
2013-09-28 20:21:00,55.0,50.0,30.31,SW,225,0.0,1.0,83,0.00,,,0.00,Rainwise IP-100,2013-09-29 00:21:00,
2013-09-28 20:26:00,54.7,50.0,30.32,SW,225,0.0,0.0,83,0.00,,,0.00,Rainwise IP-100,2013-09-29 00:26:00,
2013-09-28 20:31:00,54.5,50.0,30.35,SW,225,0.0,0.0,84,0.00,,,0.00,Rainwise IP-100,2013-09-29 00:31:00,
2013-09-28 20:36:00,54.6,50.0,30.31,SW,225,0.0,0.0,85,0.00,,,0.00,Rainwise IP-100,2013-09-29 00:36:00,
2013-09-28 20:41:00,54.6,50.0,30.31,SW,225,0.0,0.0,85,0.00,,,0.00,Rainwise IP-100,2013-09-29 00:41:00,
2013-09-28 20:46:00,54.5,50.0,30.32,South,180,0.0,0.0,85,0.00,,,0.00,Rainwise IP-100,2013-09-29 00:46:00,
2013-09-28 20:51:00,54.7,50.0,30.34,ESE,112,0.0,1.0,86,0.00,,,0.00,Rainwise IP-100,2013-09-29 00:51:00,
2013-09-28 20:56:00,54.7,50.0,30.35,ESE,112,0.0,0.0,87,0.00,,,0.00,Rainwise IP-100,2013-09-29 00:56:00,
2013-09-28 21:01:00,54.4,51.0,30.32,ESE,112,0.0,0.0,88,0.00,,,0.00,Rainwise IP-100,2013-09-29 01:01:00,
2013-09-28 21:06:00,53.8,50.0,30.34,ESE,112,0.0,0.0,89,0.00,,,0.00,Rainwise IP-100,2013-09-29 01:06:00,
2013-09-28 21:11:00,53.4,50.0,30.33,ESE,112,0.0,0.0,89,0.00,,,0.00,Rainwise IP-100,2013-09-29 01:11:00,
2013-09-28 21:16:00,53.1,50.0,30.34,ESE,112,0.0,0.0,89,0.00,,,0.00,Rainwise IP-100,2013-09-29 01:16:00,
2013-09-28 21:21:00,52.7,50.0,30.32,ESE,112,0.0,0.0,90,0.00,,,0.00,Rainwise IP-100,2013-09-29 01:21:00,
2013-09-28 21:26:00,52.5,50.0,30.34,ESE,112,0.0,0.0,90,0.00,,,0.00,Rainwise IP-100,2013-09-29 01:26:00,
2013-09-28 21:31:00,52.3,49.0,30.31,ESE,112,0.0,0.0,91,0.00,,,0.00,Rainwise IP-100,2013-09-29 01:31:00,
2013-09-28 21:36:00,52.0,49.0,30.32,ESE,112,0.0,0.0,91,0.00,,,0.00,Rainwise IP-100,2013-09-29 01:36:00,
2013-09-28 21:41:00,51.8,50.0,30.33,ESE,112,0.0,0.0,92,0.00,,,0.00,Rainwise IP-100,2013-09-29 01:41:00,
2013-09-28 21:46:00,51.7,50.0,30.34,ESE,112,0.0,0.0,92,0.00,,,0.00,Rainwise IP-100,2013-09-29 01:46:00,
2013-09-28 21:51:00,51.5,50.0,30.34,ESE,112,0.0,0.0,93,0.00,,,0.00,Rainwise IP-100,2013-09-29 01:51:00,
2013-09-28 21:56:00,51.3,49.0,30.33,WSW,247,0.0,0.0,93,0.00,,,0.00,Rainwise IP-100,2013-09-29 01:56:00,
2013-09-28 22:01:00,51.1,49.0,30.32,WSW,247,1.6,2.0,93,0.00,,,0.00,Rainwise IP-100,2013-09-29 02:01:00,
2013-09-28 22:06:00,51.2,50.0,30.32,WSW,247,0.0,3.0,94,0.00,,,0.00,Rainwise IP-100,2013-09-29 02:06:00,
2013-09-28 22:11:00,51.3,50.0,30.33,WSW,247,0.0,3.0,94,0.00,,,0.00,Rainwise IP-100,2013-09-29 02:11:00,
2013-09-28 22:16:00,51.2,49.0,30.32,West,270,0.0,3.0,93,0.00,,,0.00,Rainwise IP-100,2013-09-29 02:16:00,
2013-09-28 22:21:00,51.5,50.0,30.33,West,270,0.0,4.0,93,0.00,,,0.00,Rainwise IP-100,2013-09-29 02:21:00,
2013-09-28 22:26:00,51.8,50.0,30.34,WNW,292,0.0,2.0,92,0.00,,,0.00,Rainwise IP-100,2013-09-29 02:26:00,
2013-09-28 22:31:00,52.3,49.0,30.31,SSW,202,3.3,3.3,90,0.00,,,0.00,Rainwise IP-100,2013-09-29 02:31:00,
2013-09-28 22:36:00,52.9,49.0,30.30,SW,225,1.2,4.0,87,0.00,,,0.00,Rainwise IP-100,2013-09-29 02:36:00,
2013-09-28 22:41:00,53.2,48.0,30.33,SSW,202,3.7,3.7,85,0.00,,,0.00,Rainwise IP-100,2013-09-29 02:41:00,
2013-09-28 22:46:00,52.7,48.0,30.33,South,180,3.7,5.0,84,0.00,,,0.00,Rainwise IP-100,2013-09-29 02:46:00,
2013-09-28 22:51:00,52.1,47.0,30.33,South,180,3.7,5.0,85,0.00,,,0.00,Rainwise IP-100,2013-09-29 02:51:00,
2013-09-28 22:56:00,51.8,48.0,30.32,South,180,2.6,4.0,86,0.00,,,0.00,Rainwise IP-100,2013-09-29 02:56:00,
2013-09-28 23:01:00,52.0,48.0,30.32,SSW,202,0.0,2.0,87,0.00,,,0.00,Rainwise IP-100,2013-09-29 03:01:00,
2013-09-28 23:06:00,52.1,48.0,30.34,NNW,337,0.0,2.0,86,0.00,,,0.00,Rainwise IP-100,2013-09-29 03:06:00,
2013-09-28 23:11:00,51.8,48.0,30.32,WNW,292,2.8,2.8,86,0.00,,,0.00,Rainwise IP-100,2013-09-29 03:11:00,
2013-09-28 23:16:00,51.9,48.0,30.31,West,270,2.6,3.0,87,0.00,,,0.00,Rainwise IP-100,2013-09-29 03:16:00,
2013-09-28 23:21:00,52.1,48.0,30.34,NNW,337,2.3,3.0,88,0.00,,,0.00,Rainwise IP-100,2013-09-29 03:21:00,
2013-09-28 23:26:00,52.1,48.0,30.33,West,270,1.2,2.0,88,0.00,,,0.00,Rainwise IP-100,2013-09-29 03:26:00,
2013-09-28 23:32:00,52.4,48.0,30.33,SW,225,2.6,4.0,88,0.00,,,0.00,Rainwise IP-100,2013-09-29 03:32:00,
2013-09-28 23:37:00,52.7,49.0,30.31,SW,225,0.0,3.0,87,0.00,,,0.00,Rainwise IP-100,2013-09-29 03:37:00,
2013-09-28 23:42:00,52.7,48.0,30.31,ESE,112,0.0,3.0,86,0.00,,,0.00,Rainwise IP-100,2013-09-29 03:42:00,
2013-09-28 23:47:00,52.5,48.0,30.32,WNW,292,0.0,5.0,85,0.00,,,0.00,Rainwise IP-100,2013-09-29 03:47:00,
2013-09-28 23:52:00,52.7,48.0,30.30,North,0,3.5,5.0,85,0.00,,,0.00,Rainwise IP-100,2013-09-29 03:52:00,
2013-09-28 23:57:00,52.8,48.0,30.32,NNW,337,0.0,4.0,85,0.00,,,0.00,Rainwise IP-100,2013-09-29 03:57:00,